Location: Aldenham
(51.6667°N, 0.3500°W)
Time: 06:14:43
(UTC+00:00)

A-11 Canister half - Pass Details

Date: 21 February 2026
Orbit: 1512 x 1687 km, 47.2° (Epoch: 8 March)

Event Time Altitude Azimuth Distance (km) Brightness Sun altitude
Rises 23:47:09 0° 270° (W) 4,930 11.8 -48.6°
Enters shadow 23:50:03 - 269° (W) 4,026 11.2 -48.7°
Reaches altitude 10° 23:50:22 10° 268° (W) 3,929 - -48.7°
Maximum altitude 00:00:18 67° 189° (S) 1,749 - -48.9°
Drops below altitude 10° 00:09:53 10° 110° (ESE) 3,800 - -48.9°
Sets 00:12:56 0° 108° (ESE) 4,761 - -49.0°
